Regional Weather Roundup
Issued by NWS

Home | Current Version | Previous Version | Graphics & Text | Print | Product List | Glossary Off
Versions: 1 2 3 4 5 6 7 8 9 10 11 12 13 14 15 16 17 18 19 20 21 22 23 24 25 26 27 28 29 30 31 32 33 34 35 36 37 38 39 40 41 42 43 44 45 46 47 48 49 50

681
ASUS43 KMKX 131859
RWRWI

WISCONSIN REGIONAL WEATHER ROUNDUP
NATIONAL WEATHER SERVICE MILWAUKEE/SULLIVAN WI
100 PM CST SAT FEB 13 2016

NOTE: "FAIR" INDICATES FEW OR NO CLOUDS BELOW 12,000 FEET WITH NO
SIGNIFICANT WEATHER AND/OR OBSTRUCTIONS TO VISIBILITY.

WIZ001-002-006>008-014>016-023>028-132000-
NORTHWEST WISCONSIN

CITY           SKY/WX    TMP DP  RH WIND       PRES   REMARKS
SUPERIOR ARPT  SUNNY      4 -13  44 SW8       30.57F WCI  -9
ASHLAND        SUNNY      5 -10  50 W10       30.54F WCI -10
HAYWARD        SUNNY      4 -14  43 VRB5      30.50F WCI  -5
SIREN          SUNNY      5 -13  43 SW5       30.56F WCI  -4
CUMBERLAND     SUNNY      1 -15  46 S3        30.53F
RICE LAKE      SUNNY      1 -15  46 CALM      30.57F
CHETEK         SUNNY      3 -14  45 CALM      30.56F
LADYSMITH      SUNNY      5 -12  45 CALM      30.53F
EAU CLAIRE     NOT AVBL
MENOMONIE      SUNNY     13  -8  38 E3        30.59F
NEW RICHMOND   SUNNY      4 -14  42 CALM      30.58F
OSCEOLA        SUNNY      5 -11  49 SE3       30.61F
$$

WIZ003>005-009-010-017-018-132000-
NORTH CENTRAL WISCONSIN

CITY           SKY/WX    TMP DP  RH WIND       PRES   REMARKS
MANITOWISH WTR MOSUNNY    4  -6  63 W6        30.42F WCI  -7
ARBOR VITAE    SUNNY      6  -6  59 CALM      30.42F
WOODRUFF       SUNNY      6  -6  59 CALM      30.42F
RHINELANDER    SUNNY      6  -6  57 W10       30.41F WCI  -9
EAGLE RIVER    SUNNY      6  -7  55 N7        30.40F WCI  -6
LAND O LAKES   MOSUNNY    8  -4  58 NW9       30.40F WCI  -6
PHILLIPS       SUNNY      2 -10  55 S3        30.46F
TOMAHAWK       SUNNY      4  -8  55 W8        30.46F WCI  -9
MEDFORD        SUNNY      4 -12  49 SW6       30.47F WCI  -7
MERRILL        NOT AVBL
$$

WIZ029-030-035-036-043>047-132000-
CENTRAL WISCONSIN

CITY           SKY/WX    TMP DP  RH WIND       PRES   REMARKS
WAUSAU         SUNNY      6  -8  52 W8        30.47F WCI  -7
MOSINEE        SUNNY      3  -8  60 NW9       30.49F WCI -11
MARSHFIELD     SUNNY      3 -12  49 NW12      30.49F WCI -13
STEVENS POINT  SUNNY      6 -10  47 W5        30.50F WCI  -3
WAUPACA        SUNNY     13  -8  39 W7        30.53F WCI   2
WAUTOMA        NOT AVBL
WISC RAPIDS    SUNNY      7 -11  43 W7        30.53F WCI  -5
CAMP DOUGLAS   NOT AVBL
$$

WIZ011>013-019>022-031-037>040-048>050-132000-
NORTHEAST WISCONSIN

CITY           SKY/WX    TMP DP  RH WIND       PRES   REMARKS
ANTIGO         SUNNY      5  -7  57 W7        30.43F WCI  -7
SHAWANO        SUNNY     11  -6  45 W8        30.51F WCI   0
OCONTO         SUNNY     10  -7  46 NW8       30.50F WCI  -2
STURGEON BAY   SUNNY      9  -8  47 W10       30.50F WCI  -6
GREEN BAY      SUNNY      8  -6  52 VRB6      30.52F WCI  -2
MANITOWOC      NOT AVBL
APPLETON       MOSUNNY    9  -9  43 W8        30.49F WCI  -4
CLINTONVILLE   SUNNY     10  -8  44 NW8       30.51F WCI  -1
OSHKOSH        SUNNY      7  -7  52 W9        30.53F WCI  -7
$$

WIZ032>034-041-042-053>061-132000-
SOUTHWEST WISCONSIN

CITY           SKY/WX    TMP DP  RH WIND       PRES   REMARKS
LA CROSSE      SUNNY      7 -11  43 NW5       30.60F WCI  -2
SPARTA         SUNNY      7 -11  43 W3        30.59F
VIROQUA        SUNNY      6 -12  43 NW3       30.52F
BOSCOBEL       FLURRIES  12 -12  33 NE5       30.59F WCI   4
PRAIRIE DU CHI SUNNY      8 -11  40 CALM      30.61F
PLATTEVILLE    SUNNY      7  -7  52 CALM      30.56F
$$

WIZ056-057-062-063-064-067-068-132000-
SOUTH CENTRAL WISCONSIN

CITY           SKY/WX    TMP DP  RH WIND       PRES   REMARKS
REEDSBURG      SUNNY      5 -10  48 W6        30.56F WCI  -5
BARABOO/DELLS  SUNNY      6 -11  44 W7        30.55F WCI  -5
LONE ROCK      NOT AVBL
MINERAL POINT  SUNNY      9  -8  47 W5        30.54F WCI   0
MADISON        SUNNY      6 -10  47 NW5       30.55F WCI  -3
MIDDLETON      SUNNY      9  -9  44 W6        30.57F WCI  -1
WATERTOWN      SUNNY      8  -6  52 W6        30.55F WCI  -2
MONROE         SUNNY     10  -8  44 NW5       30.54F WCI   2
JANESVILLE     SUNNY     12  -8  40 NW9       30.56F WCI   0
$$

WIZ051-052-058>065-066-070>072-132000-
SOUTHEAST WISCONSIN

CITY           SKY/WX    TMP DP  RH WIND       PRES   REMARKS
MILWAUKEE      MOSUNNY   11  -9  40 W12       30.54F WCI  -3
WAUKESHA       SUNNY      3  -8  60 W14       30.54F WCI -15
MILWAUKEE/TIMM SUNNY     10  -9  40 NW9       30.55F WCI  -2
RACINE         SUNNY     11  -8  42 N7G17     30.56F WCI   0
BURLINGTON     SUNNY     10  -8  44 W9G17     30.55F WCI  -4
KENOSHA        SUNNY     12  -5  46 NW10      30.54F WCI  -1
FOND DU LAC    MIX PCPN   7  -7  52 W10       30.53F WCI  -8
SHEBOYGAN      SUNNY      7  -7  52 NW12      30.52F WCI  -8
WEST BEND      SUNNY      9  -8  47 NW12      30.53F WCI  -6
JUNEAU         SUNNY      5  -7  57 W8        30.55F WCI  -8
$$

LSZ147-162-132000-
LAKE SUPERIOR

STATION/POSITION TIME  TEMP    WIND        PRES    WAVE
                       AIR SEA DIR/SP/G            HT/PER
                 (UTC) (F)     (DEG/KT/KT) (MB)    (FT/S)
DEVILS ISLAND    1800    4     280/  6/  9 1036.6F
SAXON HARBOR     1800    6                 1034.5
$$

LMZ867-665-643>646-132000-
LAKE MICHIGAN

STATION/POSITION TIME  TEMP    WIND        PRES    WAVE
                       AIR SEA DIR/SP/G            HT/PER
                 (UTC) (F)     (DEG/KT/KT) (MB)    (FT/S)
CHAMBERS ISLAND  1800   10     300/ 12/ 19 1032.2F
SISTER BAY       1719   11     330/ 20/ 23   N/A
ALGOMA LAKESHORE 1811          330/ 11/ 17   N/A
KEWAUNEE LAKESHO 1800    7     310/ 12/ 19 1032.4F
SHEBOYGAN LAKESH 1800    5     320/ 15/ 18 1036.3F
PORT WASHINGTON  1840    9     300/ 11/ 16 1034.9F
MILWAUKEE LAKESH 1810    9     300/  9/ 14   N/A
KENOSHA   LAKESH 1800    9     310/ 12/ 17 1034.9F
$$

TC  - TEMPERATURE IN CELSIUS
VSB - VISIBILITY IN STATUTE MILES
WCI - WIND CHILL INDEX
HX  - HEAT INDEX





USA.gov is the U.S. government's official web portal to all federal, state and local government web resources and services.